This is the latest recevied weather packets stored in our database for station/object WE3WEE. If no packets are shown the sender has not sent any weather packets the latest 10 day(s).
| Time | Temp. | Humidity | Pressure | Rain* | Wind** | Luminosity | Snow |
|---|---|---|---|---|---|---|---|
| 1777244201 | 15.56° C | 54% | 1020.1 hPa | 0 mm | - | - | - |
| 1777243901 | 15.56° C | 53% | 1020.1 hPa | 0 mm | - | - | - |
| 1777243597 | 15.56° C | 55% | 1020.1 hPa | 0 mm | - | - | - |
| 1777243292 | 15° C | 54% | 1020.1 hPa | 0 mm | - | - | - |
| 1777242988 | 15.56° C | 54% | 1020.1 hPa | 0 mm | - | - | - |
| 1777242686 | 15.56° C | 53% | 1020.1 hPa | 0 mm | - | - | - |
| 1777242381 | 15.56° C | 53% | 1020.1 hPa | 0 mm | - | - | - |
| 1777242079 | 15.56° C | 55% | 1020.1 hPa | 0 mm | - | - | - |
| 1777241776 | 15.56° C | 52% | 1020.1 hPa | 0 mm | - | - | - |
| 1777241473 | 15.56° C | 53% | 1020.1 hPa | 0 mm | - | - | - |
| 1777241171 | 15.56° C | 53% | 1020.1 hPa | 0 mm | - | - | - |
| 1777240869 | 15.56° C | 53% | 1020.1 hPa | 0 mm | - | - | - |
| 1777240566 | 15.56° C | 55% | 1020.1 hPa | 0 mm | - | - | - |
| 1777240263 | 15.56° C | 54% | 1020.1 hPa | 0 mm | - | - | - |
| 1777239960 | 15.56° C | 55% | 1020.1 hPa | 0 mm | - | - | - |
| 1777239658 | 15.56° C | 54% | 1020.1 hPa | 0 mm | - | - | - |
| 1777239354 | 16.11° C | 55% | 1020.1 hPa | 0 mm | - | - | - |
| 1777239051 | 16.11° C | 53% | 1020.1 hPa | 0 mm | - | - | - |
| 1777238748 | 16.11° C | 53% | 1020.1 hPa | 0 mm | - | - | - |
| 1777238445 | 15.56° C | 54% | 1020.1 hPa | 0 mm | - | - | - |
| 1777238141 | 15.56° C | 56% | 1020.1 hPa | 0 mm | - | - | - |
| 1777237839 | 15° C | 56% | 1020.1 hPa | 0 mm | - | - | - |
| 1777237535 | 16.11° C | 57% | 1020.1 hPa | 0 mm | - | - | - |
| 1777237233 | 16.67° C | 55% | 1020.1 hPa | 0 mm | - | - | - |
| 1777236930 | 16.67° C | 52% | 1020.1 hPa | 0 mm | - | - | - |
* Rain latest hour (hover to see other rain measurements)
** Current wind speed in m/s (hover to see current wind gust speed)